Tracking 35334 objects as of 13-Sep-2026
HD Live streaming from Space Station
objects crossing your sky now

STARLINK-31083

Track STARLINK-31083 now!
10-day predictions
STARLINK-31083 is classified as:


NORAD ID: 58670
Int'l Code: 2023-211D
Launch date: December 29, 2023
Source: United States (US)
Launch site: AIR FORCE EASTERN TEST RANGE (AFETR)
Your satellite tracking list
Your tracking list is empty




NASA's NSSDC Master Catalog

Two Line Element Set (TLE):
1 58670U 23211D   26256.64262505  .00002131  00000-0  86973-4 0  9990
2 58670  43.0037 103.4726 0001369 263.6026  96.4670 15.27573085151217
Source of the keplerian elements: AFSPC